W1ERB-13 Weather Reports


time (UTC)temp
C
wind
direction
speed
KPH
gust
KPH
rain 1hr
cm
rain 24hr
cm
rain mn
cm
humidity
%
barometer
mb
20260504175647 20 248 4.8 8.0 0.00 0.00 0.00 34 1009.2
20260504175143 20 243 1.6 3.2 0.00 0.00 0.00 33 1009.3
20260504174642 20 243 1.6 3.2 0.00 0.00 0.00 35 1009.4
20260504174138 20 276 6.4 11.3 0.00 0.00 0.00 34 1009.5
20260504173635 20 281 11.3 14.5 0.00 0.00 0.00 32 1009.7
20260504173133 20 273 8.0 9.7 0.00 0.00 0.00 31 1009.5
20260504172629 20 208 3.2 4.8 0.00 0.00 0.00 33 1009.7
20260504172126 20 251 8.0 11.3 0.00 0.00 0.00 33 1009.6
20260504171622 20 231 8.0 11.3 0.00 0.00 0.00 32 1009.6
20260504171120 20 276 6.4 9.7 0.00 0.00 0.00 34 1009.7
20260504170615 19 238 9.7 11.3 0.00 0.00 0.00 32 1009.8
20260504170113 19 283 8.0 11.3 0.00 0.00 0.00 32 1009.7
20260504150959 18 277 11.3 14.5 0.00 0.00 0.00 31 1011.0
20260504150456 18 236 4.8 4.8 0.00 0.00 0.00 33 1011.0
20260504140922 17 126 9.7 12.9 0.00 0.00 0.00 35 1011.1
20260504140418 17 264 4.8 8.0 0.00 0.00 0.00 36 1011.2
20260504130343 14 212 4.8 8.0 0.00 0.00 0.00 45 1012.3
20260504120306 10 217 0.0 1.6 0.00 0.00 0.00 61 1012.8
20260504110224 7 229 1.6 1.6 0.00 0.00 0.00 64 1012.4
20260504100148 7 203 1.6 3.2 0.00 0.00 0.00 63 1011.9
20260504090111 5 167 1.6 1.6 0.00 0.00 0.00 73 1011.6
20260504081541 5 204 0.0 0.0 0.00 0.00 0.00 77 1011.7
20260504081037 5 204 0.0 0.0 0.00 0.00 0.00 77 1011.8
20260504080534 5 195 1.6 1.6 0.00 0.00 0.00 76 1011.8
20260504050346 5 198 1.6 1.6 0.00 0.00 0.00 79 1011.5
20260504045844 4 198 0.0 1.6 0.00 0.00 0.00 78 1011.6
20260504045338 4 198 0.0 0.0 0.00 0.00 0.00 78 1011.6
20260504044836 5 198 0.0 1.6 0.00 0.00 0.00 78 1011.3
20260504044333 5 196 1.6 1.6 0.00 0.00 0.00 78 1011.5
20260504043830 5 196 1.6 1.6 0.00 0.00 0.00 79 1011.6
20260504043327 5 198 1.6 1.6 0.00 0.00 0.00 80 1011.5
20260504042824 4 198 1.6 1.6 0.00 0.00 0.00 80 1011.5
20260504042320 5 199 1.6 1.6 0.00 0.00 0.00 79 1011.6
20260504041817 5 199 0.0 0.0 0.00 0.00 0.00 79 1011.6
20260504041313 5 199 0.0 1.6 0.00 0.00 0.00 80 1011.7
20260504040810 5 199 0.0 1.6 0.00 0.00 0.00 80 1011.5
20260504040307 5 199 0.0 0.0 0.00 0.00 0.00 81 1011.5
20260504035803 5 199 0.0 0.0 0.00 0.00 0.00 80 1011.4
20260504035300 5 199 0.0 0.0 0.00 0.00 0.00 80 1011.3
20260504034757 5 199 0.0 1.6 0.00 0.00 0.00 80 1011.3
20260504034255 5 199 1.6 1.6 0.00 0.00 0.00 80 1011.5
20260504033752 5 200 0.0 0.0 0.00 0.00 0.00 80 1011.4
20260504033250 5 199 1.6 1.6 0.00 0.00 0.00 79 1011.3
20260504032746 5 200 0.0 0.0 0.00 0.00 0.00 80 1011.3
20260504032243 5 200 0.0 1.6 0.00 0.00 0.00 79 1011.4
20260504031740 5 201 0.0 0.0 0.00 0.00 0.00 79 1011.3
20260504031238 5 201 1.6 1.6 0.00 0.00 0.00 78 1011.3
20260504030733 5 200 1.6 1.6 0.00 0.00 0.00 76 1011.3
20260504030231 5 200 1.6 1.6 0.00 0.00 0.00 76 1011.2
20260504025727 6 201 0.0 0.0 0.00 0.00 0.00 77 1011.2
20260504025224 6 201 1.6 1.6 0.00 0.00 0.00 76 1011.2
20260504024721 6 201 0.0 1.6 0.00 0.00 0.00 76 1011.3
20260504024217 6 202 0.0 0.0 0.00 0.00 0.00 76 1011.1
20260504023714 6 202 0.0 0.0 0.00 0.00 0.00 76 1011.2
20260504023210 6 202 0.0 1.6 0.00 0.00 0.00 76 1011.0
20260504022707 6 201 0.0 1.6 0.00 0.00 0.00 76 1011.0
20260504022203 6 202 1.6 1.6 0.00 0.00 0.00 75 1011.2
20260504021701 6 202 0.0 0.0 0.00 0.00 0.00 74 1011.2
20260504021157 6 202 0.0 0.0 0.00 0.00 0.00 74 1011.0
20260504020654 6 202 0.0 1.6 0.00 0.00 0.00 73 1010.9
20260504020150 6 202 0.0 0.0 0.00 0.00 0.00 73 1010.9
20260504015647 6 202 0.0 0.0 0.00 0.00 0.00 73 1011.0
20260504015143 6 202 0.0 1.6 0.00 0.00 0.00 72 1010.8
20260504014639 6 202 1.6 1.6 0.00 0.00 0.00 72 1010.9
20260504014136 7 202 0.0 0.0 0.00 0.00 0.00 71 1010.8
20260504013634 7 202 0.0 0.0 0.00 0.00 0.00 70 1010.8
20260504013131 7 202 0.0 0.0 0.00 0.00 0.00 69 1010.9
20260504012628 7 202 0.0 0.0 0.00 0.00 0.00 68 1010.7
20260504012126 7 202 0.0 0.0 0.00 0.00 0.00 66 1010.5
20260504011622 7 202 0.0 1.6 0.00 0.00 0.00 65 1010.6
20260504011119 7 202 0.0 0.0 0.00 0.00 0.00 61 1010.7
20260504010615 7 202 0.0 0.0 0.00 0.00 0.00 63 1010.3
20260504010111 7 202 0.0 0.0 0.00 0.00 0.00 61 1010.3
20260504005608 8 202 0.0 0.0 0.00 0.00 0.00 59 1010.3
20260504005105 8 202 0.0 0.0 0.00 0.00 0.00 58 1010.1
20260504004603 8 202 0.0 0.0 0.00 0.00 0.00 56 1010.0
20260504004100 8 202 0.0 0.0 0.00 0.00 0.00 56 1010.0
20260504003556 8 202 1.6 1.6 0.00 0.00 0.00 55 1010.0
20260504003053 8 202 0.0 0.0 0.00 0.00 0.00 56 1009.9
20260504002549 8 202 0.0 0.0 0.00 0.00 0.00 52 1009.6
20260504002047 8 202 1.6 1.6 0.00 0.00 0.00 51 1009.6
20260504001545 8 203 0.0 1.6 0.00 0.00 0.00 50 1009.7
20260504001040 9 202 0.0 1.6 0.00 0.00 0.00 47 1009.7
20260504000538 10 202 0.0 1.6 0.00 0.00 0.00 43 1009.3
20260504000035 10 203 0.0 0.0 0.00 0.00 0.00 41 1009.6
20260503235533 10 203 0.0 0.0 0.00 0.00 0.00 42 1009.4
20260503235030 10 202 0.0 0.0 0.00 0.00 0.00 43 1009.4
20260503234527 10 197 1.6 3.2 0.00 0.00 0.00 38 1009.4
20260503234026 11 204 0.0 0.0 0.00 0.00 0.00 38 1009.3
20260503233521 11 223 0.0 0.0 0.00 0.00 0.00 37 1009.3
20260503233018 11 238 3.2 3.2 0.00 0.00 0.00 35 1009.4
20260503232515 12 206 0.0 0.0 0.00 0.00 0.00 36 1009.2
20260503232012 12 225 1.6 1.6 0.00 0.00 0.00 36 1009.3
20260503231509 12 219 1.6 1.6 0.00 0.00 0.00 34 1009.1
20260503231001 12 223 1.6 3.2 0.00 0.00 0.00 34 1009.0
20260503230457 12 223 1.6 3.2 0.00 0.00 0.00 33 1009.1
20260503225955 12 233 4.8 4.8 0.00 0.00 0.00 33 1009.3
20260503225451 12 246 4.8 4.8 0.00 0.00 0.00 33 1009.2
20260503224947 12 250 8.0 9.7 0.00 0.00 0.00 33 1009.2
20260503224444 12 224 6.4 8.0 0.00 0.00 0.00 33 1009.1
20260503223942 12 254 6.4 8.0 0.00 0.00 0.00 33 1009.0
20260503223440 12 237 4.8 8.0 0.00 0.00 0.00 34 1009.0
20260503222935 12 242 3.2 3.2 0.00 0.00 0.00 35 1009.0
20260503222434 12 245 1.6 3.2 0.00 0.00 0.00 35 1009.1
20260503221931 12 261 8.0 9.7 0.00 0.00 0.00 33 1009.2
20260503221429 12 263 6.4 9.7 0.00 0.00 0.00 33 1008.9
20260503220926 12 260 8.0 11.3 0.00 0.00 0.00 34 1009.0
20260503220422 12 292 6.4 8.0 0.00 0.00 0.00 33 1008.9
20260503215920 12 236 9.7 11.3 0.00 0.00 0.00 34 1009.0
20260503215416 12 260 8.0 11.3 0.00 0.00 0.00 34 1009.1
20260503214914 12 230 4.8 4.8 0.00 0.00 0.00 34 1009.0
20260503214411 12 218 4.8 4.8 0.00 0.00 0.00 34 1009.1
20260503213909 12 211 1.6 1.6 0.00 0.00 0.00 34 1009.2
20260503213407 12 279 4.8 8.0 0.00 0.00 0.00 34 1009.1
20260503212903 12 255 3.2 4.8 0.00 0.00 0.00 34 1008.9
20260503212401 12 104 4.8 9.7 0.00 0.00 0.00 34 1008.9
20260503211857 12 221 4.8 4.8 0.00 0.00 0.00 36 1009.0
20260503211354 12 266 1.6 3.2 0.00 0.00 0.00 35 1009.3
20260503210849 12 283 12.9 14.5 0.00 0.00 0.00 34 1009.3
20260503210347 11 287 4.8 9.7 0.00 0.00 0.00 35 1009.0
20260503205842 12 284 6.4 9.7 0.00 0.00 0.00 35 1009.0
20260503205339 12 266 4.8 8.0 0.00 0.00 0.00 35 1008.7
20260503204835 13 234 3.2 4.8 0.00 0.00 0.00 35 1008.7
20260503204332 12 227 1.6 1.6 0.00 0.00 0.00 35 1008.9
20260503203830 13 270 3.2 4.8 0.00 0.00 0.00 35 1008.7
20260503203327 13 225 4.8 8.0 0.00 0.00 0.00 34 1008.8
20260503202824 13 226 4.8 4.8 0.00 0.00 0.00 34 1009.0
20260503202322 13 255 9.7 11.3 0.00 0.00 0.00 33 1009.1
20260503201820 13 248 8.0 11.3 0.00 0.00 0.00 34 1009.0
20260503201316 12 267 8.0 9.7 0.00 0.00 0.00 34 1008.6
20260503200814 12 241 1.6 3.2 0.00 0.00 0.00 37 1008.9
20260503200310 11 232 11.3 11.3 0.00 0.00 0.00 35 1009.0
20260503195807 11 268 6.4 8.0 0.00 0.00 0.00 37 1008.8
20260503195304 12 134 4.8 8.0 0.00 0.00 0.00 35 1008.9
20260503194801 12 309 8.0 11.3 0.00 0.00 0.00 36 1009.0
20260503194257 11 251 3.2 3.2 0.00 0.00 0.00 38 1008.8
20260503193753 12 241 11.3 14.5 0.00 0.00 0.00 35 1008.8
20260503193249 11 286 4.8 8.0 0.00 0.00 0.00 35 1008.7
20260503192745 11 357 6.4 9.7 0.00 0.00 0.00 37 1008.8
20260503192240 11 271 8.0 11.3 0.00 0.00 0.00 36 1008.7
20260503191738 12 256 3.2 3.2 0.00 0.00 0.00 34 1008.9
20260503191235 13 288 6.4 9.7 0.00 0.00 0.00 34 1008.8
20260503190731 12 240 6.4 8.0 0.00 0.00 0.00 37 1008.9
20260503190228 12 232 9.7 12.9 0.00 0.00 0.00 34 1008.7
20260503185726 14 280 11.3 12.9 0.00 0.00 0.00 32 1008.5
20260503185221 12 273 8.0 9.7 0.00 0.00 0.00 35 1008.8
20260503184716 13 266 9.7 12.9 0.00 0.00 0.00 34 1008.6
20260503184212 12 262 8.0 11.3 0.00 0.00 0.00 36 1008.7
20260503183709 12 319 14.5 16.1 0.00 0.00 0.00 36 1008.6
20260503183206 12 268 6.4 9.7 0.00 0.00 0.00 36 1008.7
20260503182704 13 246 6.4 9.7 0.00 0.00 0.00 35 1008.7
20260503182203 12 215 4.8 8.0 0.00 0.00 0.00 34 1008.5
20260503181658 12 225 3.2 4.8 0.00 0.00 0.00 35 1008.7
20260503181155 11 265 8.0 9.7 0.00 0.00 0.00 38 1008.6
20260503180652 11 223 1.6 3.2 0.00 0.00 0.00 38 1008.8
20260503180151 11 220 6.4 9.7 0.00 0.00 0.00 36 1008.8